Location: Newark
(41.7772°N, 74.7403°W)
Time: 00:57:20
(UTC+00:00)

ISS - Visible Passes

Search period start: 02 April 2020 00:00
Search period end: 12 April 2020 00:00
Orbit: 416 x 423 km, 51.6° (Epoch: 02 April)

Date Brightness Start Highest point End Pass type
(mag) Time Alt. Az. Time Alt. Az. Time Alt. Az.
02 Apr -3.4 01:13:32 10° NW 01:16:40 58° N 01:16:40 58° N visible
03 Apr -2.9 00:26:13 10° NW 00:29:23 39° NNE 00:31:14 20° E visible
03 Apr -1.0 02:03:11 10° WNW 02:04:13 17° W 02:04:13 17° W visible
04 Apr -3.2 01:15:32 10° WNW 01:18:47 48° SW 01:18:50 48° SW visible
05 Apr -3.8 00:28:02 10° WNW 00:31:23 83° SW 00:33:31 21° SE visible
06 Apr -1.5 01:18:12 10° W 01:20:25 17° SW 01:21:14 15° SSW visible
07 Apr -2.0 00:30:12 10° WNW 00:33:07 28° SW 00:36:01 10° SSE visible
